CYGNUS ORB-4

Last updated on Sat Feb 20 2016 17:02:39 GMT+0000 (Coordinated Universal Time)

1 41101U 15072A 16051.12582647 -.00641359 00000-0 -92754-2 0 9999 2 41101 51.6417 286.7845 0004032 119.2092 16.2834 15.57414652 11710
UTC large
Height (km)
Speed (km/s)
/
Latitude / Longitude
Inclination (degrees)
Orbital Period (minutes)
Azimuth
Elevation
Range (km)
Doppler Factor

Next 0 passes for location: London (51.5072 / 0.1276)

Sorry there are no passes over London.
CYGNUS ORB-4